TimeCDT,TemperatureF,Dew PointF,Humidity,Sea Level PressureIn,VisibilityMPH,Wind Direction,Wind SpeedMPH,Gust SpeedMPH,PrecipitationIn,Events,Conditions,WindDirDegrees,DateUTC
12:53 AM,41.0,37.9,89,30.11,10.0,North,10.4,-,N/A,,Overcast,360,2013-05-03 05:53:00
1:53 AM,39.9,37.9,93,30.10,10.0,North,8.1,-,N/A,,Overcast,350,2013-05-03 06:53:00
2:53 AM,39.9,37.9,93,30.08,10.0,North,9.2,-,N/A,,Overcast,360,2013-05-03 07:53:00
3:53 AM,41.0,39.0,93,30.08,10.0,North,8.1,-,N/A,,Overcast,350,2013-05-03 08:53:00
4:11 AM,41.0,39.2,93,30.07,10.0,North,6.9,-,N/A,,Overcast,360,2013-05-03 09:11:00
4:53 AM,41.0,39.0,93,30.07,10.0,NNW,5.8,-,N/A,,Overcast,340,2013-05-03 09:53:00
5:53 AM,41.0,39.0,93,30.07,10.0,North,5.8,-,N/A,,Overcast,360,2013-05-03 10:53:00
6:53 AM,42.1,39.9,92,30.07,9.0,NNW,6.9,-,N/A,,Overcast,340,2013-05-03 11:53:00
7:53 AM,44.1,41.0,89,30.06,10.0,NNW,5.8,-,N/A,,Overcast,340,2013-05-03 12:53:00
8:21 AM,44.6,41.0,87,30.05,10.0,North,6.9,-,N/A,,Mostly Cloudy,360,2013-05-03 13:21:00
8:53 AM,46.0,42.1,86,30.06,6.0,NNW,6.9,-,N/A,,Overcast,340,2013-05-03 13:53:00
9:53 AM,51.1,44.1,77,30.05,10.0,NNW,4.6,-,N/A,,Partly Cloudy,340,2013-05-03 14:53:00
10:53 AM,53.1,45.0,74,30.06,10.0,Calm,Calm,-,N/A,,Overcast,0,2013-05-03 15:53:00
11:53 AM,55.0,48.9,80,30.04,10.0,North,4.6,-,0.01,,Overcast,350,2013-05-03 16:53:00
12:53 PM,59.0,52.0,78,30.03,10.0,Calm,Calm,-,N/A,,Mostly Cloudy,0,2013-05-03 17:53:00
1:53 PM,62.1,53.1,72,30.01,10.0,NW,5.8,-,N/A,,Scattered Clouds,320,2013-05-03 18:53:00
2:53 PM,64.0,52.0,65,29.98,10.0,North,5.8,-,N/A,,Mostly Cloudy,360,2013-05-03 19:53:00
3:53 PM,62.1,51.1,67,29.97,10.0,North,8.1,-,N/A,,Clear,10,2013-05-03 20:53:00
4:24 PM,60.8,48.2,63,29.95,4.0,North,9.2,-,N/A,,Haze,360,2013-05-03 21:24:00
4:53 PM,55.9,48.9,77,29.96,10.0,North,4.6,-,0.01,Rain,Light Rain,350,2013-05-03 21:53:00
5:53 PM,54.0,48.0,80,29.97,8.0,NNE,6.9,-,0.07,Rain,Light Rain,20,2013-05-03 22:53:00
6:53 PM,53.1,50.0,89,29.96,9.0,North,6.9,-,0.05,,Overcast,10,2013-05-03 23:53:00
7:53 PM,54.0,51.1,90,29.96,8.0,NNE,6.9,-,0.01,,Scattered Clouds,20,2013-05-04 00:53:00
8:53 PM,55.0,52.0,89,29.97,10.0,NE,6.9,-,N/A,,Overcast,50,2013-05-04 01:53:00
9:53 PM,55.0,52.0,89,29.96,9.0,NNE,4.6,-,N/A,,Scattered Clouds,30,2013-05-04 02:53:00
10:53 PM,55.0,53.1,93,29.95,9.0,NE,4.6,-,N/A,,Clear,50,2013-05-04 03:53:00
11:53 PM,57.0,53.1,87,29.96,10.0,East,4.6,-,N/A,,Clear,90,2013-05-04 04:53:00